Location: Unspecified
(0.0000°N, 0.0000°E)
Time: 05:05:38
(UTC+00:00)

Altair - All Passes

Search period start: 31 July 2015 00:00
Search period end: 10 August 2015 00:00
Orbit: 1502 x 1682 km, 47.2° (Epoch: 29 July)

Date Brightness Start Highest point End Pass type
(mag) Time Alt. Az. Time Alt. Az. Time Alt. Az.
31 Jul - 06:32:04 10° N 06:39:02 23° NE 06:46:38 10° E daylight
31 Jul - 08:34:14 10° NW 08:44:01 75° SW 08:54:08 10° SSE daylight
31 Jul - 10:44:32 10° WSW 10:49:44 14° SW 10:54:10 10° SSW daylight
31 Jul - 19:20:46 10° SSW 19:29:53 49° SE 19:38:46 10° ENE visible
31 Jul - 21:26:12 10° WSW 21:34:32 34° NW 21:42:28 10° NNE visible
01 Aug - 06:07:27 10° N 06:13:47 20° NE 06:20:49 10° E daylight
01 Aug - 08:09:03 10° NW 08:18:51 83° SW 08:28:59 10° SE daylight
01 Aug - 10:18:20 10° W 10:24:23 16° SW 10:29:49 10° S daylight
01 Aug - 18:55:47 10° SSW 19:04:43 44° SE 19:13:27 10° ENE visible
01 Aug - 21:00:44 10° WSW 21:09:22 39° NW 21:17:38 10° NNE visible
02 Aug - 05:42:56 10° N 05:48:31 18° NE 05:54:51 10° E visible
02 Aug - 07:43:55 10° NW 07:53:41 89° NE 08:03:48 10° SE daylight
02 Aug - 09:52:21 10° W 09:59:04 19° SW 10:05:17 10° S daylight
02 Aug - 18:30:50 10° SSW 18:39:32 39° SE 18:48:06 10° ENE visible
02 Aug - 20:35:19 10° WSW 20:44:12 44° NW 20:52:44 10° NNE visible
03 Aug - 05:18:33 10° NNE 05:23:13 15° NE 05:28:43 10° E visible
03 Aug - 07:18:49 10° NW 07:28:30 81° NE 07:38:37 10° SE daylight
03 Aug - 09:26:30 10° W 09:33:46 21° SW 09:40:38 10° S daylight
03 Aug - 18:05:54 10° SSW 18:14:20 35° SE 18:22:41 10° ENE daylight
03 Aug - 20:09:55 10° WSW 20:19:03 49° NW 20:27:49 10° NNE visible
04 Aug - 04:54:27 10° NNE 04:57:55 13° NE 05:02:16 10° ENE visible
04 Aug - 06:53:45 10° NNW 07:03:20 73° NE 07:13:22 10° SE daylight
04 Aug - 09:00:46 10° W 09:08:29 24° SW 09:15:55 10° S daylight
04 Aug - 17:41:00 10° S 17:49:07 31° SE 17:57:13 10° ENE daylight
04 Aug - 19:44:35 10° SW 19:53:54 55° NW 20:02:51 10° NNE visible
05 Aug - 04:31:02 10° NNE 04:32:36 11° NE 04:35:08 10° ENE visible
05 Aug - 06:28:42 10° NNW 06:38:11 66° NE 06:48:06 10° SE daylight
05 Aug - 08:35:07 10° WNW 08:43:12 27° SW 08:51:08 10° S daylight
05 Aug - 17:16:10 10° S 17:23:53 28° SE 17:31:41 10° ENE daylight
05 Aug - 19:19:17 10° SW 19:28:46 62° NW 19:37:52 10° NNE visible
06 Aug - 06:03:41 10° NNW 06:13:02 59° NE 06:22:48 10° SE daylight
06 Aug - 08:09:33 10° WNW 08:17:57 31° SW 08:26:17 10° S daylight
06 Aug - 16:51:22 10° S 16:58:38 24° SE 17:06:05 10° E daylight
06 Aug - 18:54:00 10° SW 19:03:38 70° NW 19:12:51 10° NNE visible
06 Aug - 21:05:57 10° WNW 21:09:01 11° NW 21:11:13 10° NNW visible
07 Aug - 05:38:42 10° NNW 05:47:51 52° NE 05:57:27 10° SE visible
07 Aug - 07:44:03 10° WNW 07:52:42 34° SW 08:01:24 10° SSE daylight
07 Aug - 16:26:38 10° S 16:33:22 22° SE 16:40:24 10° E daylight
07 Aug - 18:28:47 10° SW 18:38:29 78° NW 18:47:48 10° NE visible
07 Aug - 20:39:12 10° WNW 20:43:44 13° NW 20:47:28 10° NNW visible
08 Aug - 05:13:45 10° NNW 05:22:41 46° NE 05:32:04 10° ESE visible
08 Aug - 07:18:37 10° WNW 07:27:28 39° SW 07:36:28 10° SSE daylight
08 Aug - 16:01:58 10° S 16:08:05 19° SE 16:14:37 10° E daylight
08 Aug - 18:03:34 10° SW 18:13:21 86° NW 18:22:44 10° NE daylight
08 Aug - 20:12:55 10° W 20:18:27 16° NW 20:23:16 10° NNW visible
09 Aug - 04:48:51 10° NNW 04:57:31 41° NE 05:06:39 10° ESE visible
09 Aug - 06:53:14 10° WNW 07:02:17 43° SW 07:11:30 10° SSE daylight
09 Aug - 15:37:25 10° S 15:42:47 17° SE 15:48:41 10° E daylight
09 Aug - 17:38:23 10° SW 17:48:13 85° SE 17:57:37 10° NE daylight
09 Aug - 19:46:52 10° W 19:53:12 18° NW 19:58:51 10° N visible
